Overview Statistics Trail Chart Weather Telemetry Raw packets
 

This is the latest recevied weather packets stored in our database for station/object VK4CWL-13. If no packets are shown the sender has not sent any weather packets the latest 10 day(s).

<< 54 55 56 57 58 59 60 >>
Time Temp. Humidity Pressure Rain* Wind** Luminosity Snow
1788302747 18.33° C 78% 1025.8 hPa 0 mm - - -
1788302445 18.33° C 80% 1025.9 hPa 0 mm - - -
1788302142 18.33° C 82% 1025.9 hPa 0 mm - - -
1788301840 17.78° C 82% 1025.7 hPa 0 mm - - -
1788301538 17.22° C 85% 1025.8 hPa 0 mm - - -
1788301235 17.22° C 85% 1025.7 hPa 0 mm - - -
1788300934 16.67° C 87% 1025.9 hPa 0 mm - - -
1788300631 16.67° C 88% 1025.9 hPa 0 mm - - -
1788300329 16.11° C 90% 1026.1 hPa 0 mm - - -
1788300026 15.56° C 92% 1026.2 hPa 0 mm - - -
1788299724 15.56° C 94% 1026.2 hPa 0 mm - - -
1788299422 15° C 96% 1026.2 hPa 0 mm - - -
1788299119 14.44° C 97% 1026.2 hPa 0 mm - - -
1788298817 14.44° C 98% 1026.2 hPa 0 mm - - -
1788298212 13.33° C 98% 1025.9 hPa 0 mm - - -
1788297610 12.78° C 97% 1025.9 hPa 0 mm - - -
1788297309 12.22° C 96% 1025.7 hPa 0 mm - - -
1788297004 12.22° C 95% 1025.7 hPa 0 mm - - -
1788296706 11.67° C 95% 1025.7 hPa 0 mm - - -
1788296401 11.67° C 94% 1025.6 hPa 0 mm - - -
1788296096 11.67° C 94% 1025.6 hPa 0 mm - - -
1788295794 11.11° C 95% 1025.5 hPa 0 mm - - -
1788295493 11.11° C 95% 1025.5 hPa 0 mm - - -
1788295190 11.11° C 95% 1025.4 hPa 0 mm - - -
1788294889 11.11° C 95% 1025.4 hPa 0 mm - - -

* Rain since midnight (hover to see other rain measurements)
** Current wind speed in m/s (hover to see current wind gust speed)